User: anonymous   Login
Location: B?jaj?g
(11.7167°N, 92.6667°E)
Time: 10:03:59
(UTC+00:00)
Language:

H-2A R/B - Orbit

View from above orbital plane
View from above orbital plane
View from above satellite
View from above satellite

Ground track
Ground track

The orbit data is extracted from the following two-line orbital elements,

1 27601U 02056E   20336.82693622  .00000122  00000-0  58776-4 0  9993
2 27601  98.2090   3.8461 0072963 138.4148  34.1727 14.31987337938644
Epoch (UTC): 01 December 2020 19:50:47
Eccentricity: 0.0072963
inclination: 98.2090°
perigee height: 733 km
apogee height: 837 km
right ascension of ascending node: 3.8461°
argument of perigee: 138.4148°
revolutions per day: 14.31987337
mean anomaly at epoch: 34.1727°
orbit number at epoch: 93864

The dashed part of the orbit path shows where the satellite is in the earth's shadow,  

DLR